GLOBALSTAR M030 [-]

Last updated on July 6, 2021, 3:36 p.m. UTC

1 25854U 99037D   21186.69907222 -.00000051  00000-0  50443-3 0  9993
2 25854  51.9843 178.4136 0003783 324.6496  35.4069 11.55072996983340
UTC
Height (km)
Latitude
Longitude
Inclination
Orbital Period
UTC large
Height (km)
Speed (km/s)
/
Latitude / Longitude
Inclination (degrees)
Orbital Period (minutes)
Azimuth
Elevation
Range (km)
Doppler Factor
iOS Compass Heading
iOS Angle